Location: Budapest
(47.4979°N, 19.0402°E)
Time: 14:00:50
(UTC+02:00)

Tiangong 1 - Pass Details

Date: 12 October 2017
Orbit: 292 x 320 km, 42.8° (Epoch: 22 October)

Event Time Altitude Azimuth Distance (km) Brightness Sun altitude
Rises 19:40:36 0° 264° (W) 2,040 6.3 -17.5°
Reaches altitude 10° 19:42:51 10° 247° (WSW) 1,203 4.4 -17.9°
Enters shadow 19:44:56 21° 196° (SSW) 775 2.6 -18.2°
